Weather in Takayama

Japan     36°08′49″N   137°15′19″E
temp.,
°C
wind,
m/s
gust,
m/s
humid.,
%
clouds,
%
prec.,
mm/h
press.,
hPa
HPBL,
m
27 october, wed
wed2700:00+5sse119485 0.0 101911
03:00+4s019247 0.0 101910
06:00+4ssw1189100 0.0 102011
09:00+10ssw1174100 0.0 1019240
12:00+16s2451100 0.0 10151553
15:00+14s3560100 0.0 1015864
18:00+9sse018399 0.1 101711
21:00+9se118693 0.1 101832
28 october, thu
thu2800:00+8ne018723 0.1 101820
03:00+5ne11940 0.1 101911
06:00+4nne119328 0.0 102010
09:00+10n137919 0.0 1019493
12:00+14nnw45590 0.0 10181155
15:00+12nnw56636 0.0 10181059
18:00+6nnw23974 0.1 102275
21:00+5nnw229738 0.2 102442
29 october, fri
fri2900:00+4n229478 0.0 102445
03:00+5n237961 0.0 102499
06:00+2n11935 0.0 102518
09:00+8nnw23660 0.0 1024764
12:00+12nnw33530 0.0 10211000
15:00+11nnw33590 0.0 1021834
18:00+5nnw11930 0.0 102515
21:00+3sw01950 0.0 102610
30 october, sat
sat3000:00+2s119566 0.0 102612
03:00+2s11935 0.0 102713
06:00+1sse11910 0.0 102813
09:00+9s12640 0.0 1027367
12:00+14s344519 0.0 10241301
15:00+14s34515 0.0 10231204
18:00+6s128587 0.0 102715
21:00+5sse118999 0.0 102817
31 october, sun
sun3100:00+4sse119196 0.0 102720
03:00+5s1188100 0.0 102723
06:00+7se1188100 0.0 102636
09:00+10s1181100 0.1 1025170
12:00+13ssw0169100 0.1 1022541
15:00+13ene017528 0.1 1022174
18:00+8ese119493 0.1 102411
21:00+7sw119670 0.1 102410